When you browse on this site, cookies collect data to enhance your experience and personalize the content and advertising you see.
Visit our Privacy Policy to learn more. By continuing to use the site, you agree to this use of cookies and data.
  • In Sweden
  • List of Countries
  • For 7 days
  • Water Temperature
  • Satellite Maps
  • Weather Map
  • Weather Widgets
  • user-avatar
    Login

    Hourly Weather Dammam

    Today, 19 July, Friday

    Time Temperature Precipitation Wind Pressure Humidity
    00:00 +37°C° 0 mm 4 mps 745 mmHg 25%
    01:00 +37°C° 0 mm 5 mps 745 mmHg 22%
    02:00 +38°C° 0 mm 6 mps 745 mmHg 19%
    03:00 +38°C° 0 mm 6 mps 745 mmHg 17%
    04:00 +38°C° 0 mm 7 mps 746 mmHg 23%
    05:00 +38°C° 0 mm 7 mps 746 mmHg 30%
    06:00 +38°C° 0 mm 8 mps 746 mmHg 36%
    07:00 +40°C° 0 mm 8 mps 746 mmHg 31%
    08:00 +43°C° 0 mm 8 mps 746 mmHg 26%
    09:00 +44°C° 0 mm 8 mps 747 mmHg 22%
    10:00 +45°C° 0 mm 8 mps 746 mmHg 20%
    11:00 +46°C° 0 mm 8 mps 746 mmHg 18%
    12:00 +48°C° 0 mm 8 mps 746 mmHg 16%
    13:00 +48°C° 0 mm 8 mps 746 mmHg 16%
    14:00 +46°C° 0 mm 7 mps 746 mmHg 15%
    15:00 +46°C° 0 mm 6 mps 745 mmHg 15%
    16:00 +45°C° 0 mm 5 mps 745 mmHg 17%
    17:00 +43°C° 0 mm 4 mps 745 mmHg 18%
    18:00 +41°C° 0 mm 2 mps 745 mmHg 20%
    19:00 +39°C° 0 mm 2 mps 745 mmHg 24%
    20:00 +38°C° 0 mm 2 mps 746 mmHg 29%
    21:00 +36°C° 0 mm 2 mps 746 mmHg 33%
    22:00 +36°C° 0 mm 2 mps 746 mmHg 33%
    23:00 +35°C° 0 mm 2 mps 746 mmHg 32%

    Tomorrow, 20 July, Saturday

    Time Temperature Precipitation Wind Pressure Humidity
    00:00 +34°C° 0 mm 1 mps 746 mmHg 32%
    01:00 +33°C° 0 mm 1 mps 746 mmHg 35%
    02:00 +33°C° 0 mm 1 mps 746 mmHg 38%
    03:00 +34°C° 0 mm 2 mps 746 mmHg 40%
    04:00 +34°C° 0 mm 2 mps 746 mmHg 40%
    05:00 +34°C° 0 mm 2 mps 747 mmHg 40%
    06:00 +35°C° 0 mm 2 mps 747 mmHg 40%
    07:00 +37°C° 0 mm 2 mps 747 mmHg 35%
    08:00 +39°C° 0 mm 2 mps 748 mmHg 30%
    09:00 +42°C° 0 mm 3 mps 748 mmHg 25%
    10:00 +42°C° 0 mm 3 mps 748 mmHg 24%
    11:00 +43°C° 0 mm 4 mps 748 mmHg 24%
    12:00 +44°C° 0 mm 4 mps 748 mmHg 23%
    13:00 +44°C° 0 mm 4 mps 748 mmHg 24%
    14:00 +43°C° 0 mm 4 mps 748 mmHg 26%
    15:00 +43°C° 0 mm 4 mps 747 mmHg 28%
    16:00 +42°C° 0 mm 4 mps 747 mmHg 30%
    17:00 +41°C° 0 mm 4 mps 747 mmHg 32%
    18:00 +39°C° 0 mm 3 mps 747 mmHg 35%
    19:00 +38°C° 0 mm 3 mps 747 mmHg 37%
    20:00 +37°C° 0 mm 2 mps 748 mmHg 39%
    21:00 +35°C° 0 mm 1 mps 748 mmHg 41%
    22:00 +34°C° 0 mm 1 mps 747 mmHg 42%
    23:00 +34°C° 0 mm 1 mps 747 mmHg 42%

    Day after tomorrow, 21 July, Sunday

    Time Temperature Precipitation Wind Pressure Humidity
    00:00 +31°C° 0 mm 0 mps 747 mmHg 42%
    01:00 +33°C° 0 mm 1 mps 747 mmHg 41%
    02:00 +33°C° 0 mm 1 mps 746 mmHg 39%
    03:00 +33°C° 0 mm 1 mps 746 mmHg 37%
    04:00 +35°C° 0 mm 2 mps 746 mmHg 32%
    05:00 +35°C° 0 mm 2 mps 747 mmHg 28%
    06:00 +36°C° 0 mm 3 mps 747 mmHg 23%
    07:00 +39°C° 0 mm 3 mps 747 mmHg 20%
    08:00 +42°C° 0 mm 3 mps 747 mmHg 18%
    09:00 +44°C° 0 mm 4 mps 747 mmHg 15%
    10:00 +46°C° 0 mm 3 mps 747 mmHg 15%
    11:00 +47°C° 0 mm 3 mps 747 mmHg 16%
    12:00 +48°C° 0 mm 3 mps 747 mmHg 16%
    13:00 +48°C° 0 mm 3 mps 746 mmHg 18%
    14:00 +48°C° 0 mm 4 mps 746 mmHg 20%
    15:00 +48°C° 0 mm 4 mps 745 mmHg 21%
    16:00 +45°C° 0 mm 3 mps 745 mmHg 22%
    17:00 +43°C° 0 mm 2 mps 745 mmHg 24%
    18:00 +42°C° 0 mm 1 mps 745 mmHg 25%
    19:00 +41°C° 0 mm 2 mps 745 mmHg 27%
    20:00 +39°C° 0 mm 2 mps 746 mmHg 29%
    21:00 +38°C° 0 mm 2 mps 746 mmHg 31%
    22:00 +37°C° 0 mm 2 mps 746 mmHg 36%
    23:00 +37°C° 0 mm 3 mps 746 mmHg 41%

    22 July, Monday

    Time Temperature Precipitation Wind Pressure Humidity
    00:00 +36°C° 0 mm 3 mps 745 mmHg 45%
    01:00 +36°C° 0 mm 3 mps 745 mmHg 45%
    02:00 +35°C° 0 mm 3 mps 745 mmHg 45%
    03:00 +35°C° 0 mm 3 mps 745 mmHg 45%
    04:00 +36°C° 0 mm 3 mps 745 mmHg 42%
    05:00 +36°C° 0 mm 2 mps 745 mmHg 40%
    06:00 +36°C° 0 mm 2 mps 745 mmHg 37%
    07:00 +38°C° 0 mm 2 mps 746 mmHg 33%
    08:00 +40°C° 0 mm 2 mps 746 mmHg 29%
    09:00 +43°C° 0 mm 3 mps 746 mmHg 24%
    10:00 +44°C° 0 mm 3 mps 746 mmHg 25%
    11:00 +44°C° 0 mm 4 mps 746 mmHg 25%
    12:00 +46°C° 0 mm 5 mps 745 mmHg 26%
    13:00 +46°C° 0 mm 5 mps 745 mmHg 26%
    14:00 +46°C° 0 mm 5 mps 744 mmHg 26%
    15:00 +46°C° 0 mm 5 mps 744 mmHg 26%
    16:00 +45°C° 0 mm 5 mps 744 mmHg 32%
    17:00 +42°C° 0 mm 5 mps 744 mmHg 37%
    18:00 +41°C° 0 mm 5 mps 744 mmHg 43%
    19:00 +40°C° 0 mm 5 mps 744 mmHg 47%
    20:00 +39°C° 0 mm 5 mps 745 mmHg 52%
    21:00 +37°C° 0 mm 4 mps 745 mmHg 57%
    22:00 +36°C° 0 mm 4 mps 745 mmHg 58%
    23:00 +36°C° 0 mm 3 mps 744 mmHg 59%

    23 July, Tuesday

    Time Temperature Precipitation Wind Pressure Humidity
    00:00 +35°C° 0 mm 3 mps 744 mmHg 60%
    01:00 +35°C° 0 mm 2 mps 744 mmHg 65%
    02:00 +33°C° 0 mm 1 mps 744 mmHg 70%
    03:00 +32°C° 0 mm 1 mps 743 mmHg 74%
    04:00 +33°C° 0 mm 1 mps 744 mmHg 71%
    05:00 +31°C° 0 mm 0 mps 744 mmHg 67%
    06:00 +32°C° 0 mm 0 mps 745 mmHg 63%
    07:00 +36°C° 0 mm 1 mps 745 mmHg 55%
    08:00 +37°C° 0 mm 1 mps 745 mmHg 48%
    09:00 +40°C° 0 mm 2 mps 745 mmHg 40%
    10:00 +41°C° 0 mm 2 mps 745 mmHg 36%
    11:00 +44°C° 0 mm 3 mps 745 mmHg 31%
    12:00 +45°C° 0 mm 3 mps 745 mmHg 27%
    13:00 +45°C° 0 mm 4 mps 745 mmHg 27%
    14:00 +45°C° 0 mm 4 mps 744 mmHg 27%
    15:00 +47°C° 0 mm 5 mps 744 mmHg 26%
    16:00 +45°C° 0 mm 5 mps 744 mmHg 34%
    17:00 +42°C° 0 mm 5 mps 744 mmHg 41%
    18:00 +40°C° 0 mm 5 mps 744 mmHg 49%
    19:00 +39°C° 0 mm 5 mps 744 mmHg 51%
    20:00 +38°C° 0 mm 4 mps 744 mmHg 54%
    21:00 +37°C° 0 mm 4 mps 745 mmHg 56%
    22:00 +37°C° 0 mm 3 mps 744 mmHg 58%
    23:00 +36°C° 0 mm 3 mps 744 mmHg 60%

    24 July, Wednesday

    Time Temperature Precipitation Wind Pressure Humidity
    00:00 +36°C° 0 mm 3 mps 744 mmHg 61%
    01:00 +36°C° 0 mm 3 mps 744 mmHg 63%
    02:00 +35°C° 0 mm 4 mps 744 mmHg 64%
    03:00 +35°C° 0 mm 4 mps 744 mmHg 65%
    04:00 +35°C° 0 mm 3 mps 744 mmHg 63%
    05:00 +35°C° 0 mm 3 mps 745 mmHg 62%
    06:00 +35°C° 0 mm 2 mps 745 mmHg 60%
    07:00 +36°C° 0 mm 1 mps 745 mmHg 52%
    08:00 +39°C° 0 mm 1 mps 745 mmHg 44%
    09:00 +37°C° 0 mm 0 mps 746 mmHg 36%
    10:00 +42°C° 0 mm 1 mps 746 mmHg 33%
    11:00 +43°C° 0 mm 2 mps 745 mmHg 30%
    12:00 +46°C° 0 mm 3 mps 745 mmHg 26%
    13:00 +47°C° 0 mm 4 mps 744 mmHg 26%
    14:00 +47°C° 0 mm 5 mps 744 mmHg 26%
    15:00 +47°C° 0 mm 5 mps 743 mmHg 25%
    16:00 +46°C° 0 mm 5 mps 743 mmHg 28%
    17:00 +43°C° 0 mm 4 mps 743 mmHg 30%
    18:00 +42°C° 0 mm 4 mps 743 mmHg 33%
    19:00 +40°C° 0 mm 3 mps 743 mmHg 34%
    20:00 +39°C° 0 mm 2 mps 744 mmHg 36%
    21:00 +37°C° 0 mm 1 mps 744 mmHg 37%
    22:00 +38°C° 0 mm 2 mps 744 mmHg 39%
    23:00 +37°C° 0 mm 3 mps 744 mmHg 41%
    Show more